Regional Weather Roundup
Issued by NWS

Home | Current Version | Previous Version | Text Only | Print | Product List | Glossary Off
Versions: 1 2 3 4 5 6 7 8 9 10 11 12 13 14 15 16 17 18 19 20 21 22 23 24 25 26 27 28 29 30 31 32 33 34 35 36 37 38 39 40 41 42 43 44 45 46 47 48 49 50

000
ASUS43 KFSD 040502
RWRSD

WEATHER ROUNDUP FOR SOUTH DAKOTA
NATIONAL WEATHER SERVICE SIOUX FALLS SD
1200 AM CDT SAT JUL 04 2015

NOTE: "FAIR" INDICATES FEW OR NO CLOUDS BELOW 12,000 FEET WITH NO
SIGNIFICANT WEATHER AND/OR OBSTRUCTIONS TO VISIBILITY.


SDZ001>005-009-010-012>017-040600-
NORTHWEST AND NORTH CENTRAL SOUTH DAKOTA

CITY           SKY/WX    TMP DP  RH WIND       PRES   REMARKS
BUFFALO          N/A     66  57  72 SE9       29.87S
FAITH            N/A     67  61  81 SE12      29.94S
MOBRIDGE       CLEAR     70  68  93 SE7       29.90S FOG
$$

SDZ012>016-024>037-041>051-057-063-072>074-040600-
SOUTHWEST AND SOUTH CENTRAL SOUTH DAKOTA

CITY           SKY/WX    TMP DP  RH WIND       PRES   REMARKS
RAPID CTY ARPT PTCLDY    64  60  87 S3        29.97S
PIERRE         CLEAR     67  64  90 SE5       29.92S FOG
CUSTER         PTCLDY    57  53  86 CALM      30.11F
ELLSWORTH AFB  PTCLDY    68  61  76 S8        29.96S
PHILIP         CLEAR     67  62  84 E7        29.94S HAZE
PINE RIDGE     CLEAR     67  56  67 N3        29.98F
WINNER         FAIR      72  61  68 S13       29.96R
$$

SDZ004>011-016>023-039-040-040600-
NORTHEAST SOUTH DAKOTA

CITY           SKY/WX    TMP DP  RH WIND       PRES   REMARKS
ABERDEEN       CLOUDY    67  64  90 S6        29.92S FOG
WATERTOWN      MOCLDY    71  64  78 CALM      29.95S HAZE
BROOKINGS      CLEAR     66  63  88 S5        29.97S
SISSETON         N/A     66  64  93 CALM      29.92R
$$

SDZ017-020-022-023-036>040-048>070-040600-
SOUTHEAST SOUTH DAKOTA

CITY           SKY/WX    TMP DP  RH WIND       PRES   REMARKS
SIOUX FALLS    MOCLDY    69  62  78 SW3       29.96S
HURON          CLEAR     71  65  81 S7        29.93R
MITCHELL       CLEAR     72  64  76 S9        29.94S
YANKTON        CLEAR     68  63  83 CALM      29.95S
$$

ABBREVIATIONS USED IN REMARKS
   TC - TEMPERATURE IN CELSIUS
  WCI - WIND CHILL INDEX
   HX - HEAT INDEX
  VSB - VISIBILITY




USA.gov is the U.S. government's official web portal to all federal, state and local government web resources and services.